Location: Fauquembergues
(50.6005°N, 2.0987°E)
Time: 04:26:03
(UTC+00:00)

Cosmos 1269 Rocket - Pass Details

Date: 14 July 2020
Orbit: 773 x 778 km, 74.1° (Epoch: 06 August)

Event Time Altitude Azimuth Distance (km) Brightness Sun altitude
Exits shadow 00:07:32 25° 219° (SW) 1,542 5.1 -17.7°
Maximum altitude 00:10:40 68° 297° (WNW) 836 4.2 -17.7°
Drops below altitude 10° 00:15:57 10° 20° (NNE) 2,332 7.7 -17.7°
Sets 00:18:21 0° 24° (NNE) 3,263 8.6 -17.6°
